[Date Prev][Date Next][Thread Prev][Thread Next] - [Date Index][Thread Index][Author Index]

2 Line ISS Keps 11-27



ISS 
1 25544U 98067A   04332.19693568  .00029486  00000-0  23722-3 0  2327
2 25544  51.6395 213.8295 0004433  52.6288  88.9836 15.70676861343926
----
Via the sarex mailing list at AMSAT.ORG courtesy of AMSAT-NA.
To unsubscribe, send "unsubscribe sarex" to Majordomo@amsat.org



AMSAT Top AMSAT Home